Location: Mentone
(34.5413°N, 85.5351°W)
Time: 13:42:02
(UTC-06:00)

Uosat F - Visible Passes

Search period start: 01 February 2015 00:00
Search period end: 11 February 2015 00:00
Orbit: 751 x 762 km, 98.7° (Epoch: 30 January)

Date Brightness Start Highest point End Pass type
(mag) Time Alt. Az. Time Alt. Az. Time Alt. Az.
01 Feb 10.9 04:32:54 10° N 04:37:58 79° WNW 04:38:09 77° WSW visible
02 Feb 12.2 03:53:57 10° NNE 03:58:40 40° E 03:58:45 40° E visible
02 Feb 12.3 05:33:32 10° NNW 05:37:14 20° WNW 05:38:48 17° W visible
03 Feb 13.7 03:16:12 10° ENE 03:19:06 16° E 03:19:22 16° E visible
03 Feb 11.2 04:53:21 10° N 04:58:13 49° WNW 04:59:24 40° WSW visible
04 Feb 11.3 04:14:01 10° NNE 04:19:03 66° ESE 04:20:03 53° SSE visible
04 Feb 12.7 05:55:03 10° NW 05:57:22 13° WNW 05:59:23 10° W visible
05 Feb 13.0 03:35:31 10° NE 03:39:37 25° E 03:40:42 24° ESE visible
05 Feb 11.8 05:14:00 10° N 05:18:26 31° WNW 05:20:45 21° WSW visible
06 Feb 10.9 04:34:17 10° N 04:39:21 78° WNW 04:41:26 36° SSW visible
07 Feb 12.2 03:55:19 10° NNE 04:00:03 41° E 04:02:07 28° SSE visible
07 Feb 12.3 05:34:56 10° NNW 05:38:36 20° WNW 05:42:06 10° WSW visible
08 Feb 13.7 03:17:32 10° NE 03:20:29 16° E 03:22:53 12° ESE visible
08 Feb 11.2 04:54:44 10° N 04:59:36 48° WNW 05:02:56 19° SW visible
09 Feb 11.3 04:15:23 10° NNE 04:20:25 67° E 04:23:43 22° S visible
09 Feb 12.8 05:56:30 10° NW 05:58:44 13° WNW 06:00:40 10° W visible
10 Feb 13.0 03:36:52 10° NE 03:41:00 26° E 03:44:36 13° SSE visible
10 Feb 11.8 05:15:23 10° N 05:19:48 30° WNW 05:24:08 10° SW visible
